keisoku_bi_jifun,keisoku_chi
2018/7/13 13:47,0.1122
2018/7/13 13:48,0.1133
2018/7/13 13:49,0.1147
2018/7/13 13:50,0.1155
2018/7/13 13:51,0.1186
2018/7/13 13:52,0.1133
2018/7/13 13:53,0.1125
2018/7/13 13:54,0.1146
2018/7/13 13:55,0.1168
2018/7/13 13:56,0.1104
2018/7/13 13:57,0.1100
2018/7/13 13:58,0.1089
2018/7/13 13:59,0.1085
2018/7/13 14:00,0.1103
2018/7/13 14:01,0.1077
2018/7/13 14:02,0.1092
2018/7/13 14:03,0.1138
2018/7/13 14:04,0.1117
2018/7/13 14:05,0.1064
2018/7/13 14:06,0.1070
2018/7/13 14:07,0.1077
2018/7/13 14:08,0.1070
2018/7/13 14:09,0.1041
2018/7/13 14:10,0.1037
2018/7/13 14:11,0.1037
2018/7/13 14:12,0.1109
2018/7/13 14:13,0.1074
2018/7/13 14:14,0.1077
2018/7/13 14:15,0.1070
2018/7/13 14:16,0.1110
2018/7/13 14:17,0.1104
2018/7/13 14:18,0.1179
2018/7/13 14:19,0.1175
2018/7/13 14:20,0.1186
2018/7/13 14:21,0.1190
2018/7/13 14:22,0.1169
2018/7/13 14:23,0.1140
2018/7/13 14:24,0.1129
2018/7/13 14:25,0.1097
2018/7/13 14:26,0.1129
2018/7/13 14:27,0.1115
2018/7/13 14:28,0.1121
2018/7/13 14:29,0.1085
2018/7/13 14:30,0.1131
2018/7/13 14:31,0.1138
2018/7/13 14:32,0.1145
2018/7/13 14:33,0.1163
2018/7/13 14:34,0.1142
2018/7/13 14:35,0.1160
2018/7/13 14:36,0.1185
2018/7/13 14:37,0.1232
2018/7/13 14:38,0.1246
2018/7/13 14:39,0.1244
2018/7/13 14:40,0.1194
2018/7/13 14:41,0.1151
2018/7/13 14:42,0.1205
2018/7/13 14:43,0.1201
2018/7/13 14:44,0.1201
2018/7/13 14:45,0.1179
2018/7/13 14:46,0.1168
2018/7/13 14:47,0.1194
2018/7/13 14:48,0.1133
2018/7/13 14:49,0.1085
2018/7/13 14:50,0.1067
2018/7/13 14:51,0.1104
2018/7/13 14:52,0.1125
2018/7/13 14:53,0.1106
2018/7/13 14:54,0.1103
2018/7/13 14:55,0.1089
2018/7/13 14:56,0.1115
2018/7/13 14:57,0.1107
2018/7/13 14:58,0.1107
2018/7/13 14:59,0.1132
2018/7/13 15:00,0.1175
2018/7/13 15:01,0.1196
2018/7/13 15:02,0.1206
2018/7/13 15:03,0.1203
2018/7/13 15:04,0.1196
2018/7/13 15:05,0.1206
2018/7/13 15:06,0.1210
2018/7/13 15:07,0.1217
2018/7/13 15:08,0.1245
2018/7/13 15:09,0.1231
2018/7/13 15:10,0.1203
2018/7/13 15:11,0.1185
2018/7/13 15:12,0.1175
2018/7/13 15:13,0.1165
2018/7/13 15:14,0.1168
2018/7/13 15:15,0.1165
2018/7/13 15:16,0.1155
2018/7/13 15:17,0.1165
2018/7/13 15:18,0.1146
2018/7/13 15:19,0.1150
2018/7/13 15:20,0.1146
2018/7/13 15:21,0.1171
2018/7/13 15:22,0.1195
2018/7/13 15:23,0.1185
2018/7/13 15:24,0.1188
2018/7/13 15:25,0.1188
2018/7/13 15:26,0.1185
2018/7/13 15:27,0.1202
2018/7/13 15:28,0.1224
2018/7/13 15:29,0.1242
2018/7/13 15:30,0.1232
2018/7/13 15:31,0.1200
2018/7/13 15:32,0.1189
2018/7/13 15:33,0.1222
2018/7/13 15:34,0.1225
2018/7/13 15:35,0.1207
2018/7/13 15:36,0.1229
2018/7/13 15:37,0.1250
2018/7/13 15:38,0.1240
2018/7/13 15:39,0.1208
2018/7/13 15:40,0.1215
2018/7/13 15:41,0.1221
2018/7/13 15:42,0.1225
2018/7/13 15:43,0.1196
2018/7/13 15:44,0.1139
2018/7/13 15:45,0.1154
2018/7/13 15:46,0.1143
2018/7/13 15:47,0.1100
2018/7/13 15:48,0.1100
2018/7/13 15:49,0.1110
2018/7/13 15:50,0.1099
2018/7/13 15:51,0.1103
2018/7/13 15:52,0.1075
2018/7/13 15:53,0.1085
2018/7/13 15:54,0.1135
2018/7/13 15:55,0.1200
2018/7/13 15:56,0.1221
2018/7/13 15:57,0.1264
2018/7/13 15:58,0.1275
2018/7/13 15:59,0.1243
2018/7/13 16:00,0.1196
2018/7/13 16:01,0.1211
2018/7/13 16:02,0.1197
2018/7/13 16:03,0.1201
2018/7/13 16:04,0.1201
2018/7/13 16:05,0.1212
2018/7/13 16:06,0.1169
2018/7/13 16:07,0.1126
2018/7/13 16:08,0.1113
2018/7/13 16:09,0.1098
2018/7/13 16:10,0.1095
2018/7/13 16:11,0.1116
2018/7/13 16:12,0.1113
2018/7/13 16:13,0.1069
2018/7/13 16:14,0.1112
2018/7/13 16:15,0.1105
2018/7/13 16:16,0.1090
2018/7/13 16:17,0.1083
2018/7/13 16:18,0.1094
2018/7/13 16:19,0.1068
2018/7/13 16:20,0.1050
2018/7/13 16:21,0.1054
2018/7/13 16:22,0.1054
2018/7/13 16:23,0.1075
2018/7/13 16:24,0.1104
2018/7/13 16:25,0.1054
2018/7/13 16:26,0.1078
2018/7/13 16:27,0.1025
2018/7/13 16:28,0.1021
2018/7/13 16:29,0.1035
2018/7/13 16:30,0.1049
2018/7/13 16:31,0.1103
2018/7/13 16:32,0.1117
2018/7/13 16:33,0.1117
2018/7/13 16:34,0.1106
2018/7/13 16:35,0.1110
2018/7/13 16:36,0.1149
2018/7/13 16:37,0.1142
2018/7/13 16:38,0.1188
2018/7/13 16:39,0.1209
2018/7/13 16:40,0.1188
2018/7/13 16:41,0.1199
2018/7/13 16:42,0.1164
2018/7/13 16:43,0.1167
2018/7/13 16:44,0.1167
2018/7/13 16:45,0.1165
2018/7/13 16:46,0.1185
2018/7/13 16:47,0.1168
2018/7/13 16:48,0.1175
2018/7/13 16:49,0.1125
2018/7/13 16:50,0.1083
2018/7/13 16:51,0.1054
2018/7/13 16:52,0.1056
2018/7/13 16:53,0.1060
2018/7/13 16:54,0.1035
2018/7/13 16:55,0.1042
2018/7/13 16:56,0.1035
2018/7/13 16:57,0.1010
2018/7/13 16:58,0.1006
2018/7/13 16:59,0.0956
2018/7/13 17:00,0.0985
2018/7/13 17:01,0.1025
2018/7/13 17:02,0.1050
2018/7/13 17:03,0.1047
2018/7/13 17:04,0.1062
2018/7/13 17:05,0.1073
2018/7/13 17:06,0.1080
2018/7/13 17:07,0.1069
2018/7/13 17:08,0.1087
2018/7/13 17:09,0.1115
2018/7/13 17:10,0.1148
2018/7/13 17:11,0.1165
2018/7/13 17:12,0.1162
2018/7/13 17:13,0.1194
2018/7/13 17:14,0.1186
2018/7/13 17:15,0.1168
2018/7/13 17:16,0.1150
2018/7/13 17:17,0.1103
2018/7/13 17:18,0.1074
2018/7/13 17:19,0.1055
2018/7/13 17:20,0.1066
2018/7/13 17:21,0.1105
2018/7/13 17:22,0.1113
2018/7/13 17:23,0.1113
2018/7/13 17:24,0.1109
2018/7/13 17:25,0.1084
2018/7/13 17:26,0.1091
2018/7/13 17:27,0.1148
2018/7/13 17:28,0.1177
2018/7/13 17:29,0.1203
2018/7/13 17:30,0.1231
2018/7/13 17:31,0.1224
2018/7/13 17:32,0.1185
2018/7/13 17:33,0.1156
2018/7/13 17:34,0.1128
2018/7/13 17:35,0.1128
2018/7/13 17:36,0.1154
2018/7/13 17:37,0.1165
2018/7/13 17:38,0.1175
2018/7/13 17:39,0.1204
2018/7/13 17:40,0.1189
2018/7/13 17:41,0.1168
2018/7/13 17:42,0.1136
2018/7/13 17:43,0.1140
2018/7/13 17:44,0.1144
2018/7/13 17:45,0.1175
2018/7/13 17:46,0.1155
2018/7/13 17:47,0.1183
2018/7/13 17:48,0.1154
2018/7/13 17:49,0.1085
2018/7/13 17:50,0.1057
2018/7/13 17:51,0.1083
2018/7/13 17:52,0.1129
2018/7/13 17:53,0.1122
2018/7/13 17:54,0.1132
2018/7/13 17:55,0.1145
2018/7/13 17:56,0.1139
2018/7/13 17:57,0.1132
2018/7/13 17:58,0.1096
2018/7/13 17:59,0.1115
2018/7/13 18:00,0.1140
2018/7/13 18:01,0.1136
2018/7/13 18:02,0.1154
2018/7/13 18:03,0.1093
2018/7/13 18:04,0.1089
2018/7/13 18:05,0.1082
2018/7/13 18:06,0.1085
2018/7/13 18:07,0.1117
2018/7/13 18:08,0.1145
2018/7/13 18:09,0.1156
2018/7/13 18:10,0.1210
2018/7/13 18:11,0.1238
2018/7/13 18:12,0.1288
2018/7/13 18:13,0.1292
2018/7/13 18:14,0.1317
2018/7/13 18:15,0.1335
2018/7/13 18:16,0.1293
2018/7/13 18:17,0.1250
2018/7/13 18:18,0.1228
2018/7/13 18:19,0.1215
2018/7/13 18:20,0.1211
2018/7/13 18:21,0.1146
2018/7/13 18:22,0.1118
2018/7/13 18:23,0.1122
2018/7/13 18:24,0.1115
2018/7/13 18:25,0.1082
2018/7/13 18:26,0.1110
2018/7/13 18:27,0.1121
2018/7/13 18:28,0.1143
2018/7/13 18:29,0.1125
2018/7/13 18:30,0.1129
2018/7/13 18:31,0.1122
2018/7/13 18:32,0.1146
2018/7/13 18:33,0.1139
2018/7/13 18:34,0.1104
2018/7/13 18:35,0.1107
2018/7/13 18:36,0.1133
2018/7/13 18:37,0.1101
2018/7/13 18:38,0.1126
2018/7/13 18:39,0.1126
2018/7/13 18:40,0.1112
2018/7/13 18:41,0.1108
2018/7/13 18:42,0.1075
2018/7/13 18:43,0.1086
2018/7/13 18:44,0.1097
2018/7/13 18:45,0.1090
2018/7/13 18:46,0.1055
2018/7/13 18:47,0.1051
2018/7/13 18:48,0.1051
2018/7/13 18:49,0.1040
2018/7/13 18:50,0.1029
2018/7/13 18:51,0.1047
2018/7/13 18:52,0.1018
2018/7/13 18:53,0.1047
2018/7/13 18:54,0.1034
2018/7/13 18:55,0.1026
2018/7/13 18:56,0.0975
2018/7/13 18:57,0.0979
2018/7/13 18:58,0.0972
2018/7/13 18:59,0.0954
2018/7/13 19:00,0.0989
2018/7/13 19:01,0.1025
2018/7/13 19:02,0.1031
2018/7/13 19:03,0.1056
2018/7/13 19:04,0.1125
2018/7/13 19:05,0.1117
2018/7/13 19:06,0.1189
2018/7/13 19:07,0.1244
2018/7/13 19:08,0.1244
2018/7/13 19:09,0.1286
2018/7/13 19:10,0.1315
2018/7/13 19:11,0.1283
2018/7/13 19:12,0.1258
2018/7/13 19:13,0.1252
2018/7/13 19:14,0.1223
2018/7/13 19:15,0.1155
2018/7/13 19:16,0.1168
2018/7/13 19:17,0.1135
2018/7/13 19:18,0.1149
2018/7/13 19:19,0.1181
2018/7/13 19:20,0.1166
2018/7/13 19:21,0.1177
2018/7/13 19:22,0.1148
2018/7/13 19:23,0.1148
2018/7/13 19:24,0.1176
2018/7/13 19:25,0.1198
2018/7/13 19:26,0.1209
2018/7/13 19:27,0.1205
2018/7/13 19:28,0.1166
2018/7/13 19:29,0.1149
2018/7/13 19:30,0.1117
2018/7/13 19:31,0.1104
2018/7/13 19:32,0.1068
2018/7/13 19:33,0.1118
2018/7/13 19:34,0.1125
2018/7/13 19:35,0.1122
2018/7/13 19:36,0.1115
2018/7/13 19:37,0.1122
2018/7/13 19:38,0.1112
2018/7/13 19:39,0.1169
2018/7/13 19:40,0.1136
2018/7/13 19:41,0.1186
2018/7/13 19:42,0.1172
2018/7/13 19:43,0.1186
2018/7/13 19:44,0.1169
2018/7/13 19:45,0.1173
2018/7/13 19:46,0.1134
2018/7/13 19:47,0.1159
2018/7/13 19:48,0.1198
2018/7/13 19:49,0.1195
2018/7/13 19:50,0.1176
2018/7/13 19:51,0.1213
2018/7/13 19:52,0.1185
2018/7/13 19:53,0.1216
2018/7/13 19:54,0.1191
2018/7/13 19:55,0.1201
2018/7/13 19:56,0.1204
2018/7/13 19:57,0.1225
2018/7/13 19:58,0.1235
2018/7/13 19:59,0.1188
2018/7/13 20:00,0.1195
2018/7/13 20:01,0.1145
2018/7/13 20:02,0.1138
2018/7/13 20:03,0.1138
2018/7/13 20:04,0.1178
2018/7/13 20:05,0.1182
2018/7/13 20:06,0.1179
2018/7/13 20:07,0.1173
2018/7/13 20:08,0.1155
2018/7/13 20:09,0.1120
2018/7/13 20:10,0.1130
2018/7/13 20:11,0.1112
2018/7/13 20:12,0.1112
2018/7/13 20:13,0.1105
2018/7/13 20:14,0.1097
2018/7/13 20:15,0.1022
2018/7/13 20:16,0.1033
2018/7/13 20:17,0.1015
2018/7/13 20:18,0.1000
2018/7/13 20:19,0.1032
2018/7/13 20:20,0.1025
2018/7/13 20:21,0.1004
2018/7/13 20:22,0.1004
2018/7/13 20:23,0.1011
2018/7/13 20:24,0.1033
2018/7/13 20:25,0.1036
2018/7/13 20:26,0.1040
2018/7/13 20:27,0.1047
2018/7/13 20:28,0.1044
2018/7/13 20:29,0.1058
2018/7/13 20:30,0.1026
2018/7/13 20:31,0.1098
2018/7/13 20:32,0.1098
2018/7/13 20:33,0.1102
2018/7/13 20:34,0.1084
2018/7/13 20:35,0.1101
2018/7/13 20:36,0.1079
2018/7/13 20:37,0.1104
2018/7/13 20:38,0.1107
2018/7/13 20:39,0.1122
2018/7/13 20:40,0.1082
2018/7/13 20:41,0.1110
2018/7/13 20:42,0.1095
2018/7/13 20:43,0.1085
2018/7/13 20:44,0.1103
2018/7/13 20:45,0.1117
2018/7/13 20:46,0.1100
2018/7/13 20:47,0.1107
2018/7/13 20:48,0.1125
2018/7/13 20:49,0.1122
2018/7/13 20:50,0.1157
2018/7/13 20:51,0.1204
2018/7/13 20:52,0.1179
2018/7/13 20:53,0.1168
2018/7/13 20:54,0.1172
2018/7/13 20:55,0.1172
2018/7/13 20:56,0.1190
2018/7/13 20:57,0.1211
2018/7/13 20:58,0.1254
2018/7/13 20:59,0.1239
2018/7/13 21:00,0.1235
2018/7/13 21:01,0.1228
2018/7/13 21:02,0.1268
2018/7/13 21:03,0.1254
2018/7/13 21:04,0.1218
2018/7/13 21:05,0.1254
2018/7/13 21:06,0.1278
2018/7/13 21:07,0.1306
2018/7/13 21:08,0.1278
2018/7/13 21:09,0.1264
2018/7/13 21:10,0.1210
2018/7/13 21:11,0.1214
2018/7/13 21:12,0.1195
2018/7/13 21:13,0.1105
2018/7/13 21:14,0.1141
2018/7/13 21:15,0.1159
2018/7/13 21:16,0.1131
2018/7/13 21:17,0.1099
2018/7/13 21:18,0.1042
2018/7/13 21:19,0.1020
2018/7/13 21:20,0.0966
2018/7/13 21:21,0.1003
2018/7/13 21:22,0.0988
2018/7/13 21:23,0.0967
2018/7/13 21:24,0.0989
2018/7/13 21:25,0.0932
2018/7/13 21:26,0.0921
2018/7/13 21:27,0.0932
2018/7/13 21:28,0.0939
2018/7/13 21:29,0.0954
2018/7/13 21:30,0.0983
2018/7/13 21:31,0.1036
2018/7/13 21:32,0.1047
2018/7/13 21:33,0.1094
2018/7/13 21:34,0.1144
2018/7/13 21:35,0.1169
2018/7/13 21:36,0.1213
2018/7/13 21:37,0.1202
2018/7/13 21:38,0.1205
2018/7/13 21:39,0.1230
2018/7/13 21:40,0.1245
2018/7/13 21:41,0.1241
2018/7/13 21:42,0.1191
2018/7/13 21:43,0.1212
2018/7/13 21:44,0.1184
2018/7/13 21:45,0.1145
2018/7/13 21:46,0.1158
2018/7/13 21:47,0.1151
2018/7/13 21:48,0.1183
2018/7/13 21:49,0.1168
2018/7/13 21:50,0.1129
2018/7/13 21:51,0.1122
2018/7/13 21:52,0.1104
2018/7/13 21:53,0.1122
2018/7/13 21:54,0.1111
2018/7/13 21:55,0.1117
2018/7/13 21:56,0.1142
2018/7/13 21:57,0.1128
2018/7/13 21:58,0.1103
2018/7/13 21:59,0.1075
2018/7/13 22:00,0.1067
2018/7/13 22:01,0.1103
2018/7/13 22:02,0.1106
2018/7/13 22:03,0.1110
2018/7/13 22:04,0.1103
2018/7/13 22:05,0.1095
2018/7/13 22:06,0.1106
2018/7/13 22:07,0.1099
2018/7/13 22:08,0.1105
2018/7/13 22:09,0.1148
2018/7/13 22:10,0.1155
2018/7/13 22:11,0.1187
2018/7/13 22:12,0.1163
2018/7/13 22:13,0.1163
2018/7/13 22:14,0.1155
2018/7/13 22:15,0.1195
2018/7/13 22:16,0.1177
2018/7/13 22:17,0.1156
2018/7/13 22:18,0.1175
2018/7/13 22:19,0.1157
2018/7/13 22:20,0.1151
2018/7/13 22:21,0.1136
2018/7/13 22:22,0.1115
2018/7/13 22:23,0.1122
2018/7/13 22:24,0.1093
2018/7/13 22:25,0.1067
2018/7/13 22:26,0.1054
2018/7/13 22:27,0.1093
2018/7/13 22:28,0.1128
2018/7/13 22:29,0.1103
2018/7/13 22:30,0.1138
2018/7/13 22:31,0.1120
2018/7/13 22:32,0.1149
2018/7/13 22:33,0.1166
2018/7/13 22:34,0.1188
2018/7/13 22:35,0.1195
2018/7/13 22:36,0.1267
2018/7/13 22:37,0.1292
2018/7/13 22:38,0.1231
2018/7/13 22:39,0.1205
2018/7/13 22:40,0.1195
2018/7/13 22:41,0.1127
2018/7/13 22:42,0.1105
2018/7/13 22:43,0.1091
2018/7/13 22:44,0.1109
2018/7/13 22:45,0.1091
2018/7/13 22:46,0.1137
2018/7/13 22:47,0.1109
2018/7/13 22:48,0.1095
2018/7/13 22:49,0.1124
2018/7/13 22:50,0.1110
2018/7/13 22:51,0.1120
2018/7/13 22:52,0.1206
2018/7/13 22:53,0.1256
2018/7/13 22:54,0.1260
2018/7/13 22:55,0.1217
2018/7/13 22:56,0.1243
2018/7/13 22:57,0.1222
2018/7/13 22:58,0.1222
2018/7/13 22:59,0.1225
2018/7/13 23:00,0.1239
2018/7/13 23:01,0.1246
2018/7/13 23:02,0.1229
2018/7/13 23:03,0.1196
2018/7/13 23:04,0.1204
2018/7/13 23:05,0.1207
2018/7/13 23:06,0.1185
2018/7/13 23:07,0.1154
2018/7/13 23:08,0.1154
2018/7/13 23:09,0.1161
2018/7/13 23:10,0.1151
2018/7/13 23:11,0.1126
2018/7/13 23:12,0.1165
2018/7/13 23:13,0.1183
2018/7/13 23:14,0.1165
2018/7/13 23:15,0.1141
2018/7/13 23:16,0.1151
2018/7/13 23:17,0.1169
2018/7/13 23:18,0.1122
2018/7/13 23:19,0.1143
2018/7/13 23:20,0.1135
2018/7/13 23:21,0.1132
2018/7/13 23:22,0.1143
2018/7/13 23:23,0.1110
2018/7/13 23:24,0.1117
2018/7/13 23:25,0.1125
2018/7/13 23:26,0.1114
2018/7/13 23:27,0.1085
2018/7/13 23:28,0.1107
2018/7/13 23:29,0.1161
2018/7/13 23:30,0.1136
2018/7/13 23:31,0.1111
2018/7/13 23:32,0.1064
2018/7/13 23:33,0.1056
2018/7/13 23:34,0.1089
2018/7/13 23:35,0.1054
2018/7/13 23:36,0.1064
2018/7/13 23:37,0.1082
2018/7/13 23:38,0.1100
2018/7/13 23:39,0.1082
2018/7/13 23:40,0.1096
2018/7/13 23:41,0.1100
2018/7/13 23:42,0.1154
2018/7/13 23:43,0.1215
2018/7/13 23:44,0.1207
2018/7/13 23:45,0.1207
2018/7/13 23:46,0.1246
2018/7/13 23:47,0.1236
2018/7/13 23:48,0.1261
2018/7/13 23:49,0.1243
2018/7/13 23:50,0.1235
2018/7/13 23:51,0.1178
2018/7/13 23:52,0.1156
2018/7/13 23:53,0.1128
2018/7/13 23:54,0.1150
2018/7/13 23:55,0.1189
2018/7/13 23:56,0.1167
2018/7/13 23:57,0.1167
2018/7/13 23:58,0.1192
2018/7/13 23:59,0.1174
2018/7/14 0:00,0.1188
2018/7/14 0:01,0.1214
2018/7/14 0:02,0.1253
2018/7/14 0:03,0.1267
2018/7/14 0:04,0.1260
2018/7/14 0:05,0.1225
2018/7/14 0:06,0.1196
2018/7/14 0:07,0.1154
2018/7/14 0:08,0.1136
2018/7/14 0:09,0.1105
2018/7/14 0:10,0.1119
2018/7/14 0:11,0.1097
2018/7/14 0:12,0.1086
2018/7/14 0:13,0.1051
2018/7/14 0:14,0.1055
2018/7/14 0:15,0.1062
2018/7/14 0:16,0.1044
2018/7/14 0:17,0.1044
2018/7/14 0:18,0.1090
2018/7/14 0:19,0.1086
2018/7/14 0:20,0.1096
2018/7/14 0:21,0.1057
2018/7/14 0:22,0.1072
2018/7/14 0:23,0.1089
2018/7/14 0:24,0.1107
2018/7/14 0:25,0.1104
2018/7/14 0:26,0.1096
2018/7/14 0:27,0.1150
2018/7/14 0:28,0.1154
2018/7/14 0:29,0.1122
2018/7/14 0:30,0.1111
2018/7/14 0:31,0.1086
2018/7/14 0:32,0.1050
2018/7/14 0:33,0.1082
2018/7/14 0:34,0.1082
2018/7/14 0:35,0.1172
2018/7/14 0:36,0.1139
2018/7/14 0:37,0.1171
2018/7/14 0:38,0.1160
2018/7/14 0:39,0.1160
2018/7/14 0:40,0.1142
2018/7/14 0:41,0.1160
2018/7/14 0:42,0.1214
2018/7/14 0:43,0.1275
2018/7/14 0:44,0.1261
2018/7/14 0:45,0.1255
2018/7/14 0:46,0.1165
2018/7/14 0:47,0.1168
2018/7/14 0:48,0.1154
2018/7/14 0:49,0.1133
2018/7/14 0:50,0.1136
2018/7/14 0:51,0.1190
2018/7/14 0:52,0.1190
2018/7/14 0:53,0.1155
2018/7/14 0:54,0.1134
2018/7/14 0:55,0.1151
2018/7/14 0:56,0.1136
2018/7/14 0:57,0.1144
2018/7/14 0:58,0.1180
2018/7/14 0:59,0.1187
2018/7/14 1:00,0.1208
2018/7/14 1:01,0.1240
2018/7/14 1:02,0.1244
2018/7/14 1:03,0.1229
2018/7/14 1:04,0.1225
2018/7/14 1:05,0.1222
2018/7/14 1:06,0.1225
2018/7/14 1:07,0.1265
2018/7/14 1:08,0.1296
2018/7/14 1:09,0.1296
2018/7/14 1:10,0.1272
2018/7/14 1:11,0.1255
2018/7/14 1:12,0.1226
2018/7/14 1:13,0.1184
2018/7/14 1:14,0.1198
2018/7/14 1:15,0.1184
2018/7/14 1:16,0.1173
2018/7/14 1:17,0.1152
2018/7/14 1:18,0.1148
2018/7/14 1:19,0.1130
2018/7/14 1:20,0.1090
2018/7/14 1:21,0.1057
2018/7/14 1:22,0.1071
2018/7/14 1:23,0.1045
2018/7/14 1:24,0.1066
2018/7/14 1:25,0.1059
2018/7/14 1:26,0.1095
2018/7/14 1:27,0.1130
2018/7/14 1:28,0.1108
2018/7/14 1:29,0.1094
2018/7/14 1:30,0.1080
2018/7/14 1:31,0.1102
2018/7/14 1:32,0.1120
2018/7/14 1:33,0.1116
2018/7/14 1:34,0.1098
2018/7/14 1:35,0.1102
2018/7/14 1:36,0.1126
2018/7/14 1:37,0.1130
2018/7/14 1:38,0.1126
2018/7/14 1:39,0.1151
2018/7/14 1:40,0.1119
2018/7/14 1:41,0.1126
2018/7/14 1:42,0.1147
2018/7/14 1:43,0.1151
2018/7/14 1:44,0.1126
2018/7/14 1:45,0.1198
2018/7/14 1:46,0.1188
2018/7/14 1:47,0.1185
2018/7/14 1:48,0.1177
2018/7/14 1:49,0.1171
2018/7/14 1:50,0.1185
2018/7/14 1:51,0.1228
2018/7/14 1:52,0.1225
2018/7/14 1:53,0.1222
2018/7/14 1:54,0.1240
2018/7/14 1:55,0.1240
2018/7/14 1:56,0.1201
2018/7/14 1:57,0.1215
2018/7/14 1:58,0.1194
2018/7/14 1:59,0.1212
2018/7/14 2:00,0.1215
2018/7/14 2:01,0.1191
2018/7/14 2:02,0.1213
2018/7/14 2:03,0.1213
2018/7/14 2:04,0.1226
2018/7/14 2:05,0.1226
2018/7/14 2:06,0.1255
2018/7/14 2:07,0.1255
2018/7/14 2:08,0.1215
2018/7/14 2:09,0.1208
2018/7/14 2:10,0.1158
2018/7/14 2:11,0.1183
2018/7/14 2:12,0.1196
2018/7/14 2:13,0.1150
2018/7/14 2:14,0.1175
2018/7/14 2:15,0.1161
2018/7/14 2:16,0.1139
2018/7/14 2:17,0.1111
2018/7/14 2:18,0.1115
2018/7/14 2:19,0.1129
2018/7/14 2:20,0.1146
2018/7/14 2:21,0.1178
2018/7/14 2:22,0.1156
2018/7/14 2:23,0.1143
2018/7/14 2:24,0.1154
2018/7/14 2:25,0.1107
2018/7/14 2:26,0.1085
2018/7/14 2:27,0.1093
2018/7/14 2:28,0.1114
2018/7/14 2:29,0.1117
2018/7/14 2:30,0.1142
2018/7/14 2:31,0.1164
2018/7/14 2:32,0.1139
2018/7/14 2:33,0.1133
2018/7/14 2:34,0.1150
2018/7/14 2:35,0.1121
2018/7/14 2:36,0.1132
2018/7/14 2:37,0.1139
2018/7/14 2:38,0.1164
2018/7/14 2:39,0.1143
2018/7/14 2:40,0.1160
2018/7/14 2:41,0.1117
2018/7/14 2:42,0.1089
2018/7/14 2:43,0.1089
2018/7/14 2:44,0.1117
2018/7/14 2:45,0.1089
2018/7/14 2:46,0.1135
2018/7/14 2:47,0.1135
2018/7/14 2:48,0.1114
2018/7/14 2:49,0.1132
2018/7/14 2:50,0.1135
2018/7/14 2:51,0.1122
2018/7/14 2:52,0.1147
2018/7/14 2:53,0.1154
2018/7/14 2:54,0.1175
2018/7/14 2:55,0.1185
2018/7/14 2:56,0.1189
2018/7/14 2:57,0.1168
2018/7/14 2:58,0.1157
2018/7/14 2:59,0.1175
2018/7/14 3:00,0.1144
2018/7/14 3:01,0.1161
2018/7/14 3:02,0.1139
2018/7/14 3:03,0.1139
2018/7/14 3:04,0.1096
2018/7/14 3:05,0.1107
2018/7/14 3:06,0.1068
2018/7/14 3:07,0.1100
2018/7/14 3:08,0.1100
2018/7/14 3:09,0.1161
2018/7/14 3:10,0.1165
2018/7/14 3:11,0.1165
2018/7/14 3:12,0.1190
2018/7/14 3:13,0.1201
2018/7/14 3:14,0.1197
2018/7/14 3:15,0.1262
2018/7/14 3:16,0.1230
2018/7/14 3:17,0.1244
2018/7/14 3:18,0.1229
2018/7/14 3:19,0.1225
2018/7/14 3:20,0.1183
2018/7/14 3:21,0.1190
2018/7/14 3:22,0.1179
2018/7/14 3:23,0.1129
2018/7/14 3:24,0.1129
2018/7/14 3:25,0.1133
2018/7/14 3:26,0.1108
2018/7/14 3:27,0.1112
2018/7/14 3:28,0.1112
2018/7/14 3:29,0.1091
2018/7/14 3:30,0.1065
2018/7/14 3:31,0.1069
2018/7/14 3:32,0.1090
2018/7/14 3:33,0.1094
2018/7/14 3:34,0.1101
2018/7/14 3:35,0.1097
2018/7/14 3:36,0.1111
2018/7/14 3:37,0.1128
2018/7/14 3:38,0.1121
2018/7/14 3:39,0.1125
2018/7/14 3:40,0.1171
2018/7/14 3:41,0.1178
2018/7/14 3:42,0.1195
2018/7/14 3:43,0.1199
2018/7/14 3:44,0.1235
2018/7/14 3:45,0.1242
2018/7/14 3:46,0.1253
2018/7/14 3:47,0.1264
2018/7/14 3:48,0.1253
2018/7/14 3:49,0.1264
2018/7/14 3:50,0.1225
2018/7/14 3:51,0.1206
2018/7/14 3:52,0.1221
2018/7/14 3:53,0.1153
2018/7/14 3:54,0.1121
2018/7/14 3:55,0.1106
2018/7/14 3:56,0.1120
2018/7/14 3:57,0.1109
2018/7/14 3:58,0.1088
2018/7/14 3:59,0.1064
2018/7/14 4:00,0.1064
2018/7/14 4:01,0.1106
2018/7/14 4:02,0.1085
2018/7/14 4:03,0.1075
2018/7/14 4:04,0.1104
2018/7/14 4:05,0.1165
2018/7/14 4:06,0.1133
2018/7/14 4:07,0.1147
2018/7/14 4:08,0.1155
2018/7/14 4:09,0.1133
2018/7/14 4:10,0.1157
2018/7/14 4:11,0.1167
2018/7/14 4:12,0.1171
2018/7/14 4:13,0.1149
2018/7/14 4:14,0.1149
2018/7/14 4:15,0.1149
2018/7/14 4:16,0.1088
2018/7/14 4:17,0.1106
2018/7/14 4:18,0.1078
2018/7/14 4:19,0.1071
2018/7/14 4:20,0.1089
2018/7/14 4:21,0.1065
2018/7/14 4:22,0.1090
2018/7/14 4:23,0.1086
2018/7/14 4:24,0.1105
2018/7/14 4:25,0.1155
2018/7/14 4:26,0.1162
2018/7/14 4:27,0.1144
2018/7/14 4:28,0.1125
2018/7/14 4:29,0.1107
2018/7/14 4:30,0.1128
2018/7/14 4:31,0.1138
2018/7/14 4:32,0.1156
2018/7/14 4:33,0.1092
2018/7/14 4:34,0.1056
2018/7/14 4:35,0.1038
2018/7/14 4:36,0.0970
2018/7/14 4:37,0.0998
2018/7/14 4:38,0.1063
2018/7/14 4:39,0.1120
2018/7/14 4:40,0.1127
2018/7/14 4:41,0.1110
2018/7/14 4:42,0.1085
2018/7/14 4:43,0.1099
2018/7/14 4:44,0.1103
2018/7/14 4:45,0.1110
2018/7/14 4:46,0.1128
2018/7/14 4:47,0.1154
2018/7/14 4:48,0.1179
2018/7/14 4:49,0.1125
2018/7/14 4:50,0.1057
2018/7/14 4:51,0.1096
2018/7/14 4:52,0.1125
2018/7/14 4:53,0.1103
2018/7/14 4:54,0.1092
2018/7/14 4:55,0.1074
2018/7/14 4:56,0.1085
2018/7/14 4:57,0.1077
2018/7/14 4:58,0.1034
2018/7/14 4:59,0.0991
2018/7/14 5:00,0.1023
2018/7/14 5:01,0.1063
2018/7/14 5:02,0.0991
2018/7/14 5:03,0.0984
2018/7/14 5:04,0.1030
2018/7/14 5:05,0.1016
2018/7/14 5:06,0.1060
2018/7/14 5:07,0.1016
2018/7/14 5:08,0.1059
2018/7/14 5:09,0.1088
2018/7/14 5:10,0.1127
2018/7/14 5:11,0.1088
2018/7/14 5:12,0.1105
2018/7/14 5:13,0.1135
2018/7/14 5:14,0.1156
2018/7/14 5:15,0.1150
2018/7/14 5:16,0.1171
2018/7/14 5:17,0.1164
2018/7/14 5:18,0.1221
2018/7/14 5:19,0.1225
2018/7/14 5:20,0.1250
2018/7/14 5:21,0.1243
2018/7/14 5:22,0.1243
2018/7/14 5:23,0.1215
2018/7/14 5:24,0.1246
2018/7/14 5:25,0.1189
2018/7/14 5:26,0.1189
2018/7/14 5:27,0.1182
2018/7/14 5:28,0.1221
2018/7/14 5:29,0.1207
2018/7/14 5:30,0.1211
2018/7/14 5:31,0.1200
2018/7/14 5:32,0.1165
2018/7/14 5:33,0.1179
2018/7/14 5:34,0.1186
2018/7/14 5:35,0.1165
2018/7/14 5:36,0.1226
2018/7/14 5:37,0.1223
2018/7/14 5:38,0.1245
2018/7/14 5:39,0.1198
2018/7/14 5:40,0.1191
2018/7/14 5:41,0.1176
2018/7/14 5:42,0.1155
2018/7/14 5:43,0.1151
2018/7/14 5:44,0.1147
2018/7/14 5:45,0.1165
2018/7/14 5:46,0.1139
2018/7/14 5:47,0.1082
2018/7/14 5:48,0.1082
2018/7/14 5:49,0.1075
2018/7/14 5:50,0.1078
2018/7/14 5:51,0.1114
2018/7/14 5:52,0.1128
2018/7/14 5:53,0.1146
2018/7/14 5:54,0.1146
2018/7/14 5:55,0.1125
2018/7/14 5:56,0.1111
2018/7/14 5:57,0.1154
2018/7/14 5:58,0.1175
2018/7/14 5:59,0.1168
2018/7/14 6:00,0.1201
2018/7/14 6:01,0.1236
2018/7/14 6:02,0.1179
2018/7/14 6:03,0.1125
2018/7/14 6:04,0.1129
2018/7/14 6:05,0.1129
2018/7/14 6:06,0.1201
2018/7/14 6:07,0.1175
2018/7/14 6:08,0.1155
2018/7/14 6:09,0.1136
2018/7/14 6:10,0.1144
2018/7/14 6:11,0.1061
2018/7/14 6:12,0.1007
2018/7/14 6:13,0.1029
2018/7/14 6:14,0.1079
2018/7/14 6:15,0.1068
2018/7/14 6:16,0.1100
2018/7/14 6:17,0.1050
2018/7/14 6:18,0.1035
2018/7/14 6:19,0.1039
2018/7/14 6:20,0.1050
2018/7/14 6:21,0.1039
2018/7/14 6:22,0.1065
2018/7/14 6:23,0.1086
2018/7/14 6:24,0.1079
2018/7/14 6:25,0.1083
2018/7/14 6:26,0.1101
2018/7/14 6:27,0.1065
2018/7/14 6:28,0.1086
2018/7/14 6:29,0.1086
2018/7/14 6:30,0.1144
2018/7/14 6:31,0.1136
2018/7/14 6:32,0.1155
2018/7/14 6:33,0.1151
2018/7/14 6:34,0.1215
2018/7/14 6:35,0.1223
2018/7/14 6:36,0.1162
2018/7/14 6:37,0.1140
2018/7/14 6:38,0.1155
2018/7/14 6:39,0.1115
2018/7/14 6:40,0.1155
2018/7/14 6:41,0.1080